DW6869 Weather Reports


Display with metric or nautical units.
time (UTC)temp
F
wind
direction
speed
MPH
gust
MPH
rain 1hr
in
rain 24hr
in
rain mn
in
humidity
%
barometer
mb
20260904164105 77 144 1.0 4.0 0.64 1.20 0.65 92 1016.4
20260904163604 77 144 1.0 4.0 0.63 1.19 0.64 91 1016.8
20260904163105 77 143 2.0 6.0 0.63 1.19 0.64 91 1017.0
20260904162604 77 334 4.0 8.0 0.64 1.19 0.64 89 1016.9
20260904162102 78 0 3.0 8.0 0.63 1.18 0.64 89 1017.0
20260904161603 78 356 3.0 8.0 0.56 1.11 0.56 89 1017.1
20260904161058 79 313 4.0 10.0 0.38 0.93 0.40 86 1017.2
20260904160551 80 339 5.0 12.0 0.24 0.79 0.25 84 1017.1
20260904160045 82 343 5.0 12.0 0.09 0.64 0.12 84 1017.3
20260904155539 84 322 4.0 11.0 0.01 0.56 0.01 80 1017.3
20260904155306 86 310 4.0 11.0 0.01 0.56 0.01 75 1017.1
20260904155137 86 310 4.0 11.0 0.01 0.56 0.01 75 1017.1
20260904154528 88 303 3.0 8.0 0.01 0.56 0.01 76 1017.1
20260904154021 90 317 2.0 6.0 0.01 0.56 0.01 80 1016.7
20260904153750 91 72 2.0 6.0 0.01 0.56 0.01 76 1016.6
20260904153515 91 72 2.0 6.0 0.01 0.56 0.01 76 1016.6
20260904153009 92 144 2.0 6.0 0.00 0.55 0.00 75 1016.5
20260904152839 92 160 2.0 6.0 0.00 0.55 0.00 75 1016.5
20260904152742 92 160 2.0 6.0 0.00 0.55 0.00 75 1016.5
20260904151958 92 160 3.0 12.0 0.00 0.55 0.00 74 1016.5
20260904151721 91 158 2.0 12.0 0.00 0.55 0.00 76 1016.5
20260904151557 91 158 2.0 12.0 0.00 0.55 0.00 76 1016.5
20260904150945 91 150 1.0 4.0 0.00 0.55 0.00 76 1016.4
20260904150712 90 122 1.0 4.0 0.00 0.55 0.00 80 1016.4
20260904150544 90 122 1.0 4.0 0.00 0.55 0.00 80 1016.4
20260904150205 89 180 1.0 3.0 0.00 0.55 0.00 82 1016.4
20260904150038 89 180 1.0 3.0 0.00 0.55 0.00 82 1016.4
20260904145427 88 188 1.0 3.0 0.00 0.55 0.00 81 1016.5
20260904144921 88 188 1.0 3.0 0.00 0.55 0.00 81 1016.3
20260904144415 88 188 2.0 4.0 0.00 0.55 0.00 79 1016.3
20260904143909 88 189 2.0 5.0 0.00 0.55 0.00 80 1016.3
20260904143403 88 189 2.0 7.0 0.00 0.55 0.00 80 1016.2
20260904142857 88 199 1.0 7.0 0.00 0.55 0.00 80 1016.2
20260904142351 87 195 1.0 4.0 0.00 0.55 0.00 83 1016.1
20260904142220 87 194 1.0 6.0 0.00 0.55 0.00 83 1016.1
20260904142121 87 194 1.0 6.0 0.00 0.55 0.00 83 1016.1
20260904141339 87 194 2.0 8.0 0.00 0.55 0.00 83 1016.1
20260904140833 87 193 3.0 9.0 0.00 0.55 0.00 85 1016.0
20260904140558 86 188 3.0 9.0 0.00 0.55 0.00 85 1016.0
20260904140432 86 188 3.0 9.0 0.00 0.55 0.00 85 1016.0
20260904135822 86 186 2.0 7.0 0.00 0.55 0.00 85 1015.9
20260904135546 86 203 2.0 6.0 0.00 0.55 0.00 87 1015.8
20260904135419 86 203 2.0 6.0 0.00 0.55 0.00 87 1015.8
20260904134810 85 176 3.0 6.0 0.00 0.55 0.00 87 1015.9
20260904134640 85 177 3.0 7.0 0.00 0.55 0.00 89 1015.9
20260904134547 85 177 3.0 7.0 0.00 0.55 0.00 89 1015.9
20260904133805 84 153 2.0 7.0 0.00 0.55 0.00 91 1015.9
20260904133305 84 214 2.0 4.0 0.00 0.55 0.00 92 1015.9
20260904133038 83 218 1.0 4.0 0.00 0.55 0.00 94 1015.9
20260904132910 83 218 1.0 4.0 0.00 0.55 0.00 94 1015.9
20260904132306 83 258 1.0 3.0 0.00 0.55 0.00 96 1015.8
20260904131801 82 262 1.0 3.0 0.00 0.55 0.00 96 1015.9
20260904131300 82 262 1.0 3.0 0.00 0.55 0.00 96 1015.7
20260904130759 82 264 1.0 3.0 0.00 0.55 0.00 96 1015.8
20260904130255 82 266 1.0 3.0 0.00 0.55 0.00 96 1015.6
20260904130133 81 299 0.0 3.0 0.00 0.55 0.00 96 1015.7
20260904130040 81 299 0.0 3.0 0.00 0.55 0.00 96 1015.7
20260904125256 81 298 1.0 3.0 0.00 0.55 0.00 96 1015.6
20260904125025 81 312 1.0 3.0 0.00 0.55 0.00 96 1015.6
20260904124859 81 312 1.0 3.0 0.00 0.55 0.00 96 1015.6
20260904124255 80 320 0.0 2.0 0.00 0.55 0.00 96 1015.5
20260904124019 80 320 0.0 2.0 0.00 0.55 0.00 96 1015.5
20260904123853 80 320 0.0 2.0 0.00 0.55 0.00 96 1015.5
20260904123249 79 320 0.0 1.0 0.00 0.55 0.00 96 1015.5
20260904122750 79 320 0.0 0.0 0.00 0.55 0.00 96 1015.4
20260904122519 78 320 0.0 0.0 0.00 0.55 0.00 96 1015.6
20260904122352 78 320 0.0 0.0 0.00 0.55 0.00 96 1015.6
20260904121746 78 320 0.0 0.0 0.00 0.55 0.00 96 1015.5
20260904121243 78 320 0.0 0.0 0.00 0.55 0.00 96 1015.5
20260904121014 77 320 0.0 0.0 0.00 0.55 0.00 96 1015.3
20260904120848 77 320 0.0 0.0 0.00 0.55 0.00 96 1015.3
20260904120510 77 320 0.0 0.0 0.00 0.55 0.00 96 1015.4
20260904120344 77 320 0.0 0.0 0.00 0.55 0.00 96 1015.4
20260904115734 77 320 0.0 0.0 0.00 0.55 0.00 95 1015.4
20260904115228 77 320 0.0 0.0 0.00 0.55 0.00 96 1015.4
20260904114722 76 320 0.0 0.0 0.00 0.55 0.00 95 1015.3
20260904114553 76 320 0.0 0.0 0.00 0.55 0.00 95 1015.3
20260904114451 76 320 0.0 0.0 0.00 0.55 0.00 95 1015.3
20260904113712 76 320 0.0 0.0 0.00 0.55 0.00 95 1015.3
20260904113204 76 320 0.0 0.0 0.00 0.55 0.00 95 1015.2
20260904112657 76 320 0.0 0.0 0.00 0.55 0.00 95 1015.1
20260904112423 76 320 0.0 0.0 0.00 0.55 0.00 95 1015.1
20260904112256 76 320 0.0 0.0 0.00 0.55 0.00 95 1015.1
20260904111646 76 320 0.0 0.0 0.00 0.55 0.00 95 1015.1
20260904111140 76 320 0.0 0.0 0.00 0.55 0.00 95 1014.9
20260904110634 76 320 0.0 0.0 0.00 0.55 0.00 95 1014.8
20260904110129 76 320 0.0 0.0 0.00 0.55 0.00 95 1014.8
20260904105727 76 320 0.0 0.0 0.00 0.55 0.00 95 1014.8
20260904104613 76 320 0.0 0.0 0.00 0.56 0.00 95 1014.6
20260904104113 77 320 0.0 0.0 0.00 0.56 0.00 95 1014.6
20260904103610 77 320 0.0 0.0 0.00 0.56 0.00 95 1014.5
20260904103110 76 320 0.0 0.0 0.00 0.56 0.00 95 1014.6
20260904102609 76 320 0.0 0.0 0.00 0.56 0.00 95 1014.6
20260904102108 77 320 0.0 0.0 0.00 0.56 0.00 95 1014.6
20260904101608 77 320 0.0 0.0 0.00 0.56 0.00 95 1014.5
20260904101112 77 320 0.0 0.0 0.00 0.56 0.00 95 1014.4
20260904100610 77 320 0.0 0.0 0.00 0.56 0.00 95 1014.3
20260904100110 77 320 0.0 0.0 0.00 0.56 0.00 95 1014.2
20260904095612 77 320 0.0 0.0 0.00 0.56 0.00 95 1014.0
20260904095109 77 320 0.0 0.0 0.00 0.56 0.00 95 1013.9
20260904094610 77 320 0.0 0.0 0.00 0.56 0.00 95 1013.9
20260904094108 77 320 0.0 0.0 0.00 0.56 0.00 95 1014.0
20260904093609 77 320 0.0 0.0 0.00 0.56 0.00 95 1014.1
20260904093109 77 320 0.0 0.0 0.00 0.56 0.00 95 1014.0
20260904092609 77 320 0.0 0.0 0.00 0.56 0.00 95 1013.9
20260904092340 77 320 0.0 0.0 0.00 0.56 0.00 95 1013.9
20260904092214 77 320 0.0 0.0 0.00 0.56 0.00 95 1013.9
20260904091608 77 320 0.0 0.0 0.00 0.56 0.00 95 1013.9
20260904091108 77 320 0.0 0.0 0.00 0.56 0.00 95 1013.9
20260904090841 77 320 0.0 0.0 0.00 0.56 0.00 95 1013.9
20260904090713 77 320 0.0 0.0 0.00 0.56 0.00 95 1013.9
20260904090341 77 320 0.0 0.0 0.00 0.56 0.00 95 1013.9
20260904090213 77 320 0.0 0.0 0.00 0.56 0.00 95 1013.9
20260904085840 77 320 0.0 0.0 0.00 0.56 0.00 95 1013.9
20260904085714 77 320 0.0 0.0 0.00 0.56 0.00 95 1013.9
20260904085339 77 320 0.0 0.0 0.00 0.56 0.00 95 1013.7
20260904085213 77 320 0.0 0.0 0.00 0.56 0.00 95 1013.7
20260904084608 77 320 0.0 0.0 0.00 0.56 0.00 95 1013.7
20260904084337 77 320 0.0 0.0 0.00 0.56 0.00 95 1013.6
20260904084209 77 320 0.0 0.0 0.00 0.56 0.00 95 1013.6
20260904083604 77 320 0.0 0.0 0.00 0.56 0.00 95 1013.6
20260904083100 77 320 0.0 0.0 0.00 0.56 0.00 95 1013.7
20260904082600 77 320 0.0 0.0 0.00 0.56 0.00 95 1013.7
20260904082058 77 320 0.0 0.0 0.00 0.56 0.00 95 1013.7
20260904081557 77 320 0.0 0.0 0.00 0.56 0.00 95 1013.7
20260904081058 77 320 0.0 0.0 0.00 0.56 0.00 95 1013.6
20260904080558 77 320 0.0 0.0 0.00 0.56 0.00 95 1013.7
20260904080052 77 320 0.0 0.0 0.00 0.56 0.00 95 1013.6
20260904075546 77 320 0.0 0.0 0.00 0.56 0.00 95 1013.5
20260904075040 77 320 0.0 0.0 0.00 0.56 0.00 95 1013.6
20260904074534 77 320 0.0 0.0 0.00 0.56 0.00 95 1013.5
20260904074028 77 320 0.0 0.0 0.00 0.56 0.00 95 1013.6
20260904073522 77 320 0.0 0.0 0.00 0.56 0.00 95 1013.7
20260904073018 77 320 0.0 0.0 0.00 0.56 0.00 95 1013.6
20260904072510 77 320 0.0 0.0 0.00 0.56 0.00 95 1013.5
20260904072004 77 320 0.0 0.0 0.00 0.56 0.00 95 1013.6
20260904071458 77 320 0.0 0.0 0.00 0.56 0.00 95 1013.6
20260904070952 77 320 0.0 0.0 0.00 0.56 0.00 95 1013.7
20260904070446 77 320 0.0 0.0 0.00 0.56 0.00 95 1013.7
20260904065940 77 320 0.0 0.0 0.00 0.56 0.00 95 1013.8
20260904065710 77 320 0.0 0.0 0.00 0.56 0.00 95 1013.8
20260904065434 77 320 0.0 0.0 0.00 0.56 0.00 95 1013.8
20260904064929 77 320 0.0 0.0 0.00 0.56 0.00 95 1013.8
20260904064422 77 320 0.0 0.0 0.00 0.56 0.00 95 1013.8
20260904063916 77 320 0.0 0.0 0.00 0.56 0.00 94 1013.8
20260904063410 77 320 0.0 0.0 0.00 0.56 0.00 95 1013.9
20260904062904 78 320 0.0 0.0 0.00 0.56 0.00 95 1013.9
20260904062358 78 320 0.0 0.0 0.00 0.56 0.00 95 1014.0
20260904062228 78 320 0.0 0.0 0.00 0.56 0.00 95 1014.0
20260904062129 78 320 0.0 0.0 0.00 0.56 0.00 95 1014.0
20260904061346 78 320 0.0 0.0 0.00 0.56 0.00 95 1014.1
20260904061113 78 320 0.0 0.0 0.00 0.56 0.00 95 1014.2
20260904060945 78 320 0.0 0.0 0.00 0.56 0.00 95 1014.2
20260904060606 77 320 0.0 0.0 0.00 0.56 0.00 95 1014.2
20260904060439 77 320 0.0 0.0 0.00 0.56 0.00 95 1014.2
20260904055828 78 320 0.0 0.0 0.00 0.56 0.00 95 1014.2
20260904055553 78 320 0.0 0.0 0.00 0.56 0.00 95 1014.2
20260904055426 78 320 0.0 0.0 0.00 0.56 0.00 95 1014.2
20260904054816 78 320 0.0 0.0 0.00 0.56 0.00 95 1014.1
20260904054312 78 320 0.0 0.0 0.00 0.56 0.00 95 1014.1
20260904053812 78 320 0.0 0.0 0.00 0.56 0.00 95 1014.2
20260904053314 78 320 0.0 0.0 0.00 0.56 0.00 95 1014.3
20260904052814 78 320 0.0 0.0 0.00 0.56 0.00 95 1014.2
20260904052310 78 320 0.0 0.0 0.00 0.56 0.00 94 1014.4
20260904051809 78 320 0.0 0.0 0.00 0.56 0.00 95 1014.4
20260904051537 78 320 0.0 0.0 0.00 0.56 0.00 95 1014.3
20260904051410 78 320 0.0 0.0 0.00 0.56 0.00 95 1014.3
20260904050806 78 320 0.0 0.0 0.00 0.56 0.00 94 1014.4
20260904050306 78 320 0.0 0.0 0.00 0.56 0.00 94 1014.4
20260904045804 78 320 0.0 0.0 0.00 0.56 0.00 95 1014.3
20260904045306 78 320 0.0 0.0 0.00 0.56 0.00 94 1014.3
20260904044801 78 320 0.0 0.0 0.00 0.56 0.00 94 1014.3
20260904044259 78 320 0.0 0.0 0.00 0.56 0.00 95 1014.5
20260904043758 78 320 0.0 0.0 0.00 0.56 0.00 94 1014.5
20260904043257 78 320 0.0 0.0 0.00 0.56 0.00 94 1014.7
20260904043029 78 320 0.0 0.0 0.00 0.57 0.00 94 1014.8
20260904042901 78 320 0.0 0.0 0.00 0.57 0.00 94 1014.8
20260904042254 78 320 0.0 0.0 0.00 0.57 0.00 94 1014.7
20260904042024 78 320 0.0 0.0 0.00 0.57 0.00 94 1014.8
20260904041857 78 320 0.0 0.0 0.00 0.57 0.00 94 1014.8
20260904041250 78 320 0.0 0.0 0.00 0.57 0.00 94 1014.8
20260904040749 78 320 0.0 0.0 0.00 0.57 0.00 94 1014.7
20260904040247 78 320 0.0 0.0 0.00 0.59 0.00 94 1014.7
20260904035746 78 320 0.0 0.0 0.00 0.62 0.60 94 1014.6
20260904035246 78 320 0.0 0.0 0.00 0.65 0.60 94 1014.7
20260904034742 78 320 0.0 0.0 0.00 0.69 0.60 94 1014.7
20260904034242 78 320 0.0 0.0 0.00 0.69 0.60 94 1014.8
20260904034011 78 320 0.0 0.0 0.00 0.69 0.60 94 1014.7
20260904033843 78 320 0.0 0.0 0.00 0.69 0.60 94 1014.7
20260904033237 78 320 0.0 0.0 0.00 0.69 0.60 94 1014.6
20260904032734 78 320 0.0 0.0 0.00 0.69 0.60 94 1014.8
20260904032233 78 320 0.0 0.0 0.00 0.69 0.60 94 1014.9
20260904031730 78 320 0.0 0.0 0.00 0.69 0.60 94 1014.9
20260904031503 78 320 0.0 0.0 0.00 0.69 0.60 94 1015.0
20260904031336 78 320 0.0 0.0 0.00 0.69 0.60 94 1015.0
20260904030730 78 320 0.0 0.0 0.00 0.69 0.60 94 1014.9
20260904030229 78 320 0.0 1.0 0.00 0.69 0.60 94 1014.9
20260904025727 78 320 0.0 1.0 0.00 0.69 0.60 94 1015.0
20260904025225 78 320 0.0 1.0 0.00 0.69 0.60 94 1015.0
20260904024724 78 320 0.0 2.0 0.00 0.69 0.60 94 1015.0
20260904024221 78 320 0.0 2.0 0.00 0.69 0.60 94 1015.0
20260904023719 78 320 0.0 2.0 0.00 0.69 0.60 94 1015.0
20260904023217 78 320 0.0 1.0 0.00 0.69 0.60 94 1015.0
20260904022717 78 320 0.0 0.0 0.00 0.69 0.60 94 1015.0
20260904022216 78 320 0.0 0.0 0.00 0.69 0.60 94 1015.0
20260904021948 78 320 0.0 1.0 0.00 0.69 0.60 94 1014.9
20260904021822 78 320 0.0 1.0 0.00 0.69 0.60 94 1014.9
20260904021443 78 320 0.0 1.0 0.00 0.69 0.60 94 1015.0
20260904021317 78 320 0.0 1.0 0.00 0.69 0.60 94 1015.0
20260904020937 78 320 0.0 1.0 0.00 0.69 0.60 94 1015.0
20260904020810 78 320 0.0 1.0 0.00 0.69 0.60 94 1015.0
20260904020200 78 320 0.0 0.0 0.00 0.69 0.60 94 1014.9
20260904015926 78 320 0.0 0.0 0.00 0.69 0.60 94 1014.9
20260904015758 78 320 0.0 0.0 0.00 0.69 0.60 94 1014.9
20260904015148 78 320 0.0 0.0 0.00 0.69 0.60 94 1014.8
20260904014642 78 320 0.0 0.0 0.00 0.69 0.60 94 1014.8
20260904014136 78 320 0.0 0.0 0.00 0.69 0.60 94 1014.9
20260904013630 78 320 0.0 0.0 0.00 0.69 0.60 94 1014.8
20260904013354 78 320 0.0 0.0 0.00 0.69 0.60 94 1014.8
20260904013228 78 320 0.0 0.0 0.00 0.69 0.60 94 1014.8
20260904012619 78 320 0.0 0.0 0.00 0.69 0.60 94 1014.8
20260904012111 78 320 0.0 0.0 0.00 0.69 0.60 94 1014.7
20260904011611 78 320 0.0 0.0 0.00 0.69 0.60 93 1014.5
20260904011327 78 320 0.0 0.0 0.00 0.69 0.60 93 1014.6
20260904011201 78 320 0.0 0.0 0.00 0.69 0.60 93 1014.6
20260904010551 78 320 0.0 0.0 0.00 0.69 0.60 93 1014.4
20260904010316 78 320 0.0 0.0 0.00 0.69 0.60 93 1014.5
20260904010148 78 320 0.0 0.0 0.00 0.69 0.60 93 1014.5
20260904005538 78 320 0.0 1.0 0.00 0.69 0.60 93 1014.3
20260904005032 78 320 0.0 1.0 0.00 0.69 0.60 93 1014.3
20260904004526 78 320 0.0 1.0 0.00 0.69 0.60 93 1014.3
20260904004020 78 320 0.0 1.0 0.00 0.69 0.60 93 1014.2
20260904003515 78 320 0.0 1.0 0.00 0.69 0.60 93 1014.4
20260904003008 78 320 0.0 0.0 0.00 0.69 0.60 93 1014.0
20260904002502 78 320 0.0 1.0 0.00 0.69 0.60 93 1014.0
20260904001957 78 320 0.0 2.0 0.00 0.69 0.60 93 1014.0
20260904001450 78 320 0.0 2.0 0.00 0.69 0.60 93 1014.0
20260904000944 78 320 0.0 2.0 0.00 0.69 0.60 93 1014.2
20260904000440 78 320 0.0 1.0 0.00 0.69 0.60 93 1014.1
20260904000204 78 320 0.0 1.0 0.00 0.69 0.60 93 1014.0
20260904000036 78 320 0.0 1.0 0.00 0.69 0.60 93 1014.0
20260903235426 78 320 0.0 0.0 0.00 0.69 0.60 93 1013.8
20260903234920 78 320 0.0 1.0 0.00 0.69 0.60 93 1013.9
20260903234414 78 320 0.0 1.0 0.00 0.69 0.60 92 1013.9
20260903233915 78 320 1.0 2.0 0.00 0.69 0.60 92 1013.9
20260903233128 78 320 0.0 2.0 0.00 0.69 0.60 92 1013.9
20260903233000 78 320 0.0 2.0 0.00 0.69 0.60 92 1013.9
20260903232350 78 320 0.0 0.0 0.00 0.69 0.60 92 1013.8
20260903231845 78 320 0.0 0.0 0.00 0.69 0.60 92 1013.7
20260903231609 78 320 0.0 0.0 0.00 0.69 0.60 91 1013.7
20260903231443 78 320 0.0 0.0 0.00 0.69 0.60 91 1013.7
20260903231107 78 320 0.0 0.0 0.00 0.69 0.60 91 1013.8
20260903230832 78 320 0.0 0.0 0.00 0.69 0.60 91 1013.8
20260903230332 78 320 0.0 0.0 0.00 0.69 0.60 91 1013.8
20260903225314 78 320 0.0 1.0 0.00 0.69 0.60 91 1013.8
20260903224814 78 320 0.0 1.0 0.00 0.69 0.60 91 1014.0
20260903224314 78 320 0.0 2.0 0.00 0.69 0.60 90 1013.9
20260903223814 78 320 0.0 2.0 0.00 0.69 0.60 90 1013.9
20260903223315 78 320 1.0 3.0 0.00 0.69 0.60 90 1013.9
20260903222814 78 320 2.0 4.0 0.00 0.69 0.60 90 1014.1
20260903222314 79 320 2.0 4.0 0.00 0.69 0.60 89 1014.0
20260903221814 79 321 2.0 5.0 0.00 0.69 0.60 90 1014.1
20260903221545 79 326 1.0 5.0 0.00 0.69 0.60 90 1013.9
20260903221419 79 326 1.0 5.0 0.00 0.69 0.60 90 1013.9
20260903221045 79 52 0.0 3.0 0.00 0.71 0.60 91 1013.7
20260903220919 79 52 0.0 3.0 0.00 0.71 0.60 91 1013.7
20260903220315 79 53 0.0 1.0 0.00 0.78 0.60 92 1013.7
20260903215813 79 53 0.0 1.0 0.00 0.81 0.60 92 1013.5
20260903215315 79 53 0.0 1.0 0.00 0.87 0.60 93 1013.4
20260903214814 79 54 0.0 1.0 0.00 0.89 0.60 93 1013.2
20260903214551 79 53 0.0 2.0 0.00 0.93 0.60 93 1013.1
20260903214045 78 53 0.0 2.0 0.00 0.95 0.60 93 1012.9
20260903213918 78 53 0.0 2.0 0.00 0.95 0.60 93 1012.9
20260903213314 78 53 0.0 2.0 0.00 0.96 0.60 93 1012.8
20260903213051 78 53 0.0 2.0 0.00 0.97 0.60 93 1012.7
20260903212316 78 54 1.0 3.0 0.00 0.97 0.60 93 1012.6
20260903211814 77 53 1.0 4.0 0.00 0.97 0.60 92 1012.7
20260903211314 77 52 2.0 4.0 0.25 0.97 0.60 92 1012.8
20260903210815 77 45 2.0 4.0 0.53 0.97 0.60 91 1012.9
20260903210314 76 47 2.0 4.0 0.55 0.97 0.60 91 1013.0
20260903210046 76 48 3.0 8.0 0.55 0.97 0.60 90 1013.3
20260903205920 76 48 3.0 8.0 0.55 0.97 0.60 90 1013.3
20260903205314 76 47 4.0 10.0 0.55 0.97 0.60 90 1013.6
20260903205005 78 81 4.0 8.0 0.55 0.97 0.60 89 1013.9
20260903204959 78 84 5.0 8.0 0.55 0.97 0.60 89 1013.5
20260903204930 76 52 5.0 12.0 0.55 0.97 0.60 89 1013.6
20260903204825 77 54 5.0 12.0 0.55 0.97 0.60 87 1013.7
20260903204716 78 45 4.0 10.0 0.55 0.97 0.60 88 1013.9
20260903204613 78 81 4.0 8.0 0.55 0.97 0.60 89 1013.9
20260903204405 78 84 5.0 8.0 0.55 0.97 0.60 89 1013.5
20260903202812 78 84 5.0 8.0 0.55 0.97 0.60 89 1013.5
20260903202542 78 5 6.0 14.0 0.55 0.97 0.60 88 1013.4
20260903202416 78 5 6.0 14.0 0.55 0.97 0.60 88 1013.4
20260903201812 79 301 6.0 14.0 0.55 0.97 0.60 87 1013.3
20260903201313 81 320 5.0 12.0 0.30 0.72 0.39 85 1014.0
20260903200812 82 315 4.0 12.0 0.00 0.42 0.05 82 1013.7
20260903200312 83 343 4.0 11.0 0.00 0.42 0.05 77 1013.3
20260903195813 85 308 3.0 11.0 0.00 0.42 0.05 75 1013.2
20260903195311 86 309 2.0 5.0 0.00 0.42 0.05 78 1013.2
20260903195043 87 58 2.0 6.0 0.00 0.42 0.05 79 1012.9
20260903194916 87 58 2.0 6.0 0.00 0.42 0.05 79 1012.9
20260903194312 88 81 3.0 8.0 0.00 0.42 0.05 78 1012.7
20260903193812 88 114 3.0 8.0 0.00 0.42 0.05 78 1012.4
20260903193313 89 29 4.0 9.0 0.00 0.42 0.05 77 1012.8
20260903192811 89 26 4.0 9.0 0.00 0.42 0.05 76 1012.9
20260903192542 89 20 3.0 8.0 0.00 0.42 0.05 75 1012.9
20260903192416 89 20 3.0 8.0 0.00 0.42 0.05 75 1012.9
20260903191812 90 41 3.0 8.0 0.00 0.42 0.05 74 1012.9
20260903191310 90 58 3.0 7.0 0.00 0.42 0.05 73 1013.0
20260903190914 91 58 3.0 8.0 0.00 0.42 0.05 74 1013.0
20260903190310 91 81 3.0 8.0 0.00 0.42 0.05 73 1013.0
20260903185809 91 39 3.0 8.0 0.00 0.42 0.05 73 1012.9
20260903185414 91 31 3.0 8.0 0.00 0.42 0.05 73 1013.1
20260903184804 92 21 2.0 6.0 0.00 0.42 0.05 70 1013.3
20260903184258 92 49 2.0 4.0 0.00 0.42 0.05 70 1013.3
20260903184128 92 65 2.0 4.0 0.00 0.42 0.05 70 1013.3
20260903184032 92 65 2.0 4.0 0.00 0.42 0.05 70 1013.3
20260903183246 93 65 2.0 5.0 0.00 0.42 0.05 69 1013.3
20260903182739 94 160 2.0 5.0 0.00 0.42 0.05 66 1013.3
20260903182609 94 160 2.0 6.0 0.00 0.42 0.05 65 1013.0
20260903182513 94 160 2.0 6.0 0.00 0.42 0.05 65 1013.0
20260903181728 95 68 3.0 9.0 0.00 0.42 0.05 65 1013.1
20260903181222 95 39 3.0 9.0 0.00 0.42 0.05 65 1013.1
20260903180715 95 170 3.0 7.0 0.00 0.42 0.05 66 1013.3
20260903180209 95 53 2.0 5.0 0.00 0.42 0.05 63 1013.4
20260903175704 96 57 2.0 5.0 0.00 0.42 0.05 63 1013.5
20260903175158 96 55 2.0 6.0 0.00 0.42 0.05 65 1013.6
20260903174923 95 225 2.0 6.0 0.00 0.42 0.05 60 1013.6
20260903174755 95 225 2.0 6.0 0.00 0.42 0.05 60 1013.6
20260903174146 95 170 2.0 6.0 0.00 0.42 0.05 63 1013.7
20260903173640 94 184 2.0 6.0 0.00 0.42 0.05 65 1013.8
20260903173134 94 226 1.0 6.0 0.00 0.42 0.05 64 1013.8
20260903172900 93 216 1.0 3.0 0.00 0.42 0.05 65 1013.8
20260903172733 93 216 1.0 3.0 0.00 0.42 0.05 65 1013.8
20260903172353 93 216 2.0 3.0 0.00 0.42 0.05 67 1013.9
20260903172226 93 216 2.0 3.0 0.00 0.42 0.05 67 1013.9
20260903171616 92 217 1.0 5.0 0.00 0.42 0.05 66 1014.0
20260903171110 93 217 2.0 5.0 0.00 0.42 0.05 68 1014.1
20260903170604 93 218 2.0 5.0 0.00 0.42 0.05 65 1014.2
20260903170058 92 218 2.0 6.0 0.00 0.42 0.05 67 1014.2
20260903165657 93 218 2.0 6.0 0.00 0.42 0.05 68 1014.3
20260903165045 93 315 2.0 6.0 0.00 0.42 0.05 66 1014.4
20260903164540 93 259 2.0 6.0 0.00 0.42 0.05 64 1014.5